Year,Month,Day,Hour,Minute,Value (Times are PST for temperature in C)
2015,07,23,00,00,13.00
2015,07,23,00,01,12.90
2015,07,23,00,02,12.90
2015,07,23,00,03,12.90
2015,07,23,00,04,12.90
2015,07,23,00,05,12.80
2015,07,23,00,06,12.80
2015,07,23,00,07,12.80
2015,07,23,00,08,12.80
2015,07,23,00,09,12.80
2015,07,23,00,10,12.80
2015,07,23,00,11,12.80
2015,07,23,00,12,12.70
2015,07,23,00,13,12.70
2015,07,23,00,14,12.70
2015,07,23,00,15,12.70
2015,07,23,00,16,12.70
2015,07,23,00,17,12.70
2015,07,23,00,18,12.70
2015,07,23,00,19,12.70
2015,07,23,00,20,12.80
2015,07,23,00,21,12.80
2015,07,23,00,22,12.90
2015,07,23,00,23,13.00
2015,07,23,00,24,13.10
2015,07,23,00,25,13.20
2015,07,23,00,26,13.20
2015,07,23,00,27,13.30
2015,07,23,00,28,13.30
2015,07,23,00,29,13.40
2015,07,23,00,30,13.40
2015,07,23,00,31,13.40
2015,07,23,00,32,13.40
2015,07,23,00,33,13.40
2015,07,23,00,34,13.40
2015,07,23,00,35,13.40
2015,07,23,00,36,13.40
2015,07,23,00,37,13.40
2015,07,23,00,38,13.30
2015,07,23,00,39,13.30
2015,07,23,00,40,13.30
2015,07,23,00,41,13.30
2015,07,23,00,42,13.30
2015,07,23,00,43,13.20
2015,07,23,00,44,13.20
2015,07,23,00,45,13.20
2015,07,23,00,46,13.10
2015,07,23,00,47,13.10
2015,07,23,00,48,13.10
2015,07,23,00,49,13.10
2015,07,23,00,50,13.00
2015,07,23,00,51,13.10
2015,07,23,00,52,13.10
2015,07,23,00,53,13.10
2015,07,23,00,54,13.10
2015,07,23,00,55,13.10
2015,07,23,00,56,13.20
2015,07,23,00,57,13.20
2015,07,23,00,58,13.30
2015,07,23,00,59,13.30
2015,07,23,01,00,13.30
2015,07,23,01,01,13.30
2015,07,23,01,02,13.30
2015,07,23,01,03,13.40
2015,07,23,01,04,13.40
2015,07,23,01,05,13.40
2015,07,23,01,06,13.40
2015,07,23,01,07,13.40
2015,07,23,01,08,13.30
2015,07,23,01,09,13.30
2015,07,23,01,10,13.30
2015,07,23,01,11,13.20
2015,07,23,01,12,13.20
2015,07,23,01,13,13.10
2015,07,23,01,14,13.10
2015,07,23,01,15,13.00
2015,07,23,01,16,12.90
2015,07,23,01,17,12.90
2015,07,23,01,18,12.80
2015,07,23,01,19,12.80
2015,07,23,01,20,12.70
2015,07,23,01,21,12.70
2015,07,23,01,22,12.60
2015,07,23,01,23,12.60
2015,07,23,01,24,12.50
2015,07,23,01,25,12.50
2015,07,23,01,26,12.50
2015,07,23,01,27,12.40
2015,07,23,01,28,12.40
2015,07,23,01,29,12.40
2015,07,23,01,30,12.40
2015,07,23,01,31,12.30
2015,07,23,01,32,12.30
2015,07,23,01,33,12.30
2015,07,23,01,34,12.30
2015,07,23,01,35,12.20
2015,07,23,01,36,12.20
2015,07,23,01,37,12.20
2015,07,23,01,38,12.20
2015,07,23,01,39,12.10
2015,07,23,01,40,12.10
2015,07,23,01,41,12.10
2015,07,23,01,42,12.10
2015,07,23,01,43,12.00
2015,07,23,01,44,12.00
2015,07,23,01,45,12.00
2015,07,23,01,46,11.90
2015,07,23,01,47,11.90
2015,07,23,01,48,11.90
2015,07,23,01,49,11.90
2015,07,23,01,50,11.80
2015,07,23,01,51,11.80
2015,07,23,01,52,11.80
2015,07,23,01,53,11.80
2015,07,23,01,54,11.70
2015,07,23,01,55,11.70
2015,07,23,01,56,11.70
2015,07,23,01,57,11.70
2015,07,23,01,58,11.60
2015,07,23,01,59,11.60
2015,07,23,02,00,11.60
2015,07,23,02,01,11.60
2015,07,23,02,02,11.50
2015,07,23,02,03,11.50
2015,07,23,02,04,11.50
2015,07,23,02,05,11.50
2015,07,23,02,06,11.50
2015,07,23,02,07,11.40
2015,07,23,02,08,11.40
2015,07,23,02,09,11.40
2015,07,23,02,10,11.40
2015,07,23,02,11,11.40
2015,07,23,02,12,11.40
2015,07,23,02,13,11.40
2015,07,23,02,14,11.40
2015,07,23,02,15,11.40
2015,07,23,02,16,11.50
2015,07,23,02,17,11.60
2015,07,23,02,18,11.60
2015,07,23,02,19,11.70
2015,07,23,02,20,11.70
2015,07,23,02,21,11.70
2015,07,23,02,22,11.80
2015,07,23,02,23,11.80
2015,07,23,02,24,11.80
2015,07,23,02,25,11.80
2015,07,23,02,26,11.80
2015,07,23,02,27,11.80
2015,07,23,02,28,11.80
2015,07,23,02,29,11.80
2015,07,23,02,30,11.80
2015,07,23,02,31,11.80
2015,07,23,02,32,11.80
2015,07,23,02,33,11.80
2015,07,23,02,34,11.90
2015,07,23,02,35,12.10
2015,07,23,02,36,12.20
2015,07,23,02,37,12.30
2015,07,23,02,38,12.50
2015,07,23,02,39,12.60
2015,07,23,02,40,12.70
2015,07,23,02,41,12.80
2015,07,23,02,42,12.90
2015,07,23,02,43,12.90
2015,07,23,02,44,13.00
2015,07,23,02,45,13.00
2015,07,23,02,46,13.00
2015,07,23,02,47,13.00
2015,07,23,02,48,13.10
2015,07,23,02,49,13.10
2015,07,23,02,50,13.10
2015,07,23,02,51,13.10
2015,07,23,02,52,13.20
2015,07,23,02,53,13.20
2015,07,23,02,54,13.30
2015,07,23,02,55,13.30
2015,07,23,02,56,13.30
2015,07,23,02,57,13.30
2015,07,23,02,58,13.30
2015,07,23,02,59,13.40
2015,07,23,03,00,13.40
2015,07,23,03,01,13.40
2015,07,23,03,02,13.40
2015,07,23,03,03,13.40
2015,07,23,03,04,13.40
2015,07,23,03,05,13.50
2015,07,23,03,06,13.50
2015,07,23,03,07,13.50
2015,07,23,03,08,13.60
2015,07,23,03,09,13.60
2015,07,23,03,10,13.50
2015,07,23,03,11,13.50
2015,07,23,03,12,13.40
2015,07,23,03,13,13.40
2015,07,23,03,14,13.40
2015,07,23,03,15,13.40
2015,07,23,03,16,13.30
2015,07,23,03,17,13.20
2015,07,23,03,18,13.20
2015,07,23,03,19,13.10
2015,07,23,03,20,13.10
2015,07,23,03,21,13.00
2015,07,23,03,22,13.00
2015,07,23,03,23,13.00
2015,07,23,03,24,12.90
2015,07,23,03,25,12.90
2015,07,23,03,26,12.80
2015,07,23,03,27,12.80
2015,07,23,03,28,12.70
2015,07,23,03,29,12.70
2015,07,23,03,30,12.60
2015,07,23,03,31,12.50
2015,07,23,03,32,12.40
2015,07,23,03,33,12.40
2015,07,23,03,34,12.30
2015,07,23,03,35,12.30
2015,07,23,03,36,12.20
2015,07,23,03,37,12.20
2015,07,23,03,38,12.20
2015,07,23,03,39,12.20
2015,07,23,03,40,12.20
2015,07,23,03,41,12.20
2015,07,23,03,42,12.20
2015,07,23,03,43,12.20
2015,07,23,03,44,12.10
2015,07,23,03,45,12.10
2015,07,23,03,46,12.10
2015,07,23,03,47,12.00
2015,07,23,03,48,12.00
2015,07,23,03,49,11.90
2015,07,23,03,50,11.80
2015,07,23,03,51,11.80
2015,07,23,03,52,11.90
2015,07,23,03,53,11.90
2015,07,23,03,54,11.90
2015,07,23,03,55,11.90
2015,07,23,03,56,11.90
2015,07,23,03,57,12.00
2015,07,23,03,58,12.00
2015,07,23,03,59,12.10
2015,07,23,04,00,12.10
2015,07,23,04,01,12.10
2015,07,23,04,02,12.00
2015,07,23,04,03,12.00
2015,07,23,04,04,11.90
2015,07,23,04,05,11.80
2015,07,23,04,06,11.80
2015,07,23,04,07,11.70
2015,07,23,04,08,11.70
2015,07,23,04,09,11.60
2015,07,23,04,10,11.60
2015,07,23,04,11,11.60
2015,07,23,04,12,11.60
2015,07,23,04,13,11.60
2015,07,23,04,14,11.60
2015,07,23,04,15,11.70
2015,07,23,04,16,11.80
2015,07,23,04,17,11.80
2015,07,23,04,18,11.80
2015,07,23,04,19,11.80
2015,07,23,04,20,11.70
2015,07,23,04,21,11.70
2015,07,23,04,22,11.70
2015,07,23,04,23,11.70
2015,07,23,04,24,11.60
2015,07,23,04,25,11.60
2015,07,23,04,26,11.50
2015,07,23,04,27,11.50
2015,07,23,04,28,11.40
2015,07,23,04,29,11.30
2015,07,23,04,30,11.30
2015,07,23,04,31,11.20
2015,07,23,04,32,11.20
2015,07,23,04,33,11.10
2015,07,23,04,34,11.10
2015,07,23,04,35,11.00
2015,07,23,04,36,10.90
2015,07,23,04,37,10.90
2015,07,23,04,38,10.80
2015,07,23,04,39,10.80
2015,07,23,04,40,10.90
2015,07,23,04,41,10.90
2015,07,23,04,42,11.00
2015,07,23,04,43,11.00
2015,07,23,04,44,11.00
2015,07,23,04,45,10.90
2015,07,23,04,46,10.90
2015,07,23,04,47,10.90
2015,07,23,04,48,10.90
2015,07,23,04,49,10.80
2015,07,23,04,50,10.80
2015,07,23,04,51,10.80
2015,07,23,04,52,10.80
2015,07,23,04,53,10.80
2015,07,23,04,54,10.80
2015,07,23,04,55,10.90
2015,07,23,04,56,10.90
2015,07,23,04,57,10.90
2015,07,23,04,58,10.90
2015,07,23,04,59,10.90
2015,07,23,05,00,10.90
2015,07,23,05,01,11.00
2015,07,23,05,02,11.00
2015,07,23,05,03,11.00
2015,07,23,05,04,11.10
2015,07,23,05,05,11.00
2015,07,23,05,06,11.00
2015,07,23,05,07,10.90
2015,07,23,05,08,10.80
2015,07,23,05,09,10.80
2015,07,23,05,10,10.70
2015,07,23,05,11,10.60
2015,07,23,05,12,10.50
2015,07,23,05,13,10.50
2015,07,23,05,14,10.40
2015,07,23,05,15,10.40
2015,07,23,05,16,10.30
2015,07,23,05,17,10.30
2015,07,23,05,18,10.30
2015,07,23,05,19,10.30
2015,07,23,05,20,10.30
2015,07,23,05,21,10.20
2015,07,23,05,22,10.20
2015,07,23,05,23,10.20
2015,07,23,05,24,10.30
2015,07,23,05,25,10.30
2015,07,23,05,26,10.30
2015,07,23,05,27,10.30
2015,07,23,05,28,10.40
2015,07,23,05,29,10.30
2015,07,23,05,30,10.30
2015,07,23,05,31,10.30
2015,07,23,05,32,10.30
2015,07,23,05,33,10.30
2015,07,23,05,34,10.30
2015,07,23,05,35,10.20
2015,07,23,05,36,10.20
2015,07,23,05,37,10.20
2015,07,23,05,38,10.20
2015,07,23,05,39,10.20
2015,07,23,05,40,10.10
2015,07,23,05,41,10.10
2015,07,23,05,42,10.10
2015,07,23,05,43,10.00
2015,07,23,05,44,10.00
2015,07,23,05,45,10.00
2015,07,23,05,46,10.00
2015,07,23,05,47,9.90
2015,07,23,05,48,9.90
2015,07,23,05,49,9.90
2015,07,23,05,50,9.90
2015,07,23,05,51,9.90
2015,07,23,05,52,9.90
2015,07,23,05,53,9.80
2015,07,23,05,54,9.80
2015,07,23,05,55,9.80
2015,07,23,05,56,9.80
2015,07,23,05,57,9.80
2015,07,23,05,58,9.80
2015,07,23,05,59,9.80
2015,07,23,06,00,9.80
2015,07,23,06,01,9.80
2015,07,23,06,02,9.80
2015,07,23,06,03,9.80
2015,07,23,06,04,9.80
2015,07,23,06,05,9.80
2015,07,23,06,06,9.80
2015,07,23,06,07,9.80
2015,07,23,06,08,9.80
2015,07,23,06,09,9.80
2015,07,23,06,10,9.80
2015,07,23,06,11,9.80
2015,07,23,06,12,9.80
2015,07,23,06,13,9.80
2015,07,23,06,14,9.90
2015,07,23,06,15,9.90
2015,07,23,06,16,9.90
2015,07,23,06,17,10.00
2015,07,23,06,18,10.10
2015,07,23,06,19,10.30
2015,07,23,06,20,10.50
2015,07,23,06,21,10.60
2015,07,23,06,22,10.70
2015,07,23,06,23,10.70
2015,07,23,06,24,10.70
2015,07,23,06,25,10.70
2015,07,23,06,26,10.70
2015,07,23,06,27,10.80
2015,07,23,06,28,10.80
2015,07,23,06,29,10.90
2015,07,23,06,30,11.00
2015,07,23,06,31,11.10
2015,07,23,06,32,11.20
2015,07,23,06,33,11.30
2015,07,23,06,34,11.50
2015,07,23,06,35,11.60
2015,07,23,06,36,11.70
2015,07,23,06,37,11.80
2015,07,23,06,38,11.90
2015,07,23,06,39,12.00
2015,07,23,06,40,12.10
2015,07,23,06,41,12.10
2015,07,23,06,42,12.20
2015,07,23,06,43,12.20
2015,07,23,06,44,12.20
2015,07,23,06,45,12.30
2015,07,23,06,46,12.30
2015,07,23,06,47,12.30
2015,07,23,06,48,12.40
2015,07,23,06,49,12.40
2015,07,23,06,50,12.50
2015,07,23,06,51,12.60
2015,07,23,06,52,12.60
2015,07,23,06,53,12.70
2015,07,23,06,54,12.70
2015,07,23,06,55,12.80
2015,07,23,06,56,12.80
2015,07,23,06,57,12.80
2015,07,23,06,58,12.90
2015,07,23,06,59,12.90
2015,07,23,07,00,12.90
2015,07,23,07,01,12.90
2015,07,23,07,02,13.00
2015,07,23,07,03,13.00
2015,07,23,07,04,13.10
2015,07,23,07,05,13.20
2015,07,23,07,06,13.20
2015,07,23,07,07,13.30
2015,07,23,07,08,13.40
2015,07,23,07,09,13.50
2015,07,23,07,10,13.50
2015,07,23,07,11,13.60
2015,07,23,07,12,13.70
2015,07,23,07,13,13.70
2015,07,23,07,14,13.80
2015,07,23,07,15,13.90
2015,07,23,07,16,13.90
2015,07,23,07,17,14.00
2015,07,23,07,18,14.10
2015,07,23,07,19,14.20
2015,07,23,07,20,14.20
2015,07,23,07,21,14.30
2015,07,23,07,22,14.30
2015,07,23,07,23,14.40
2015,07,23,07,24,14.50
2015,07,23,07,25,14.50
2015,07,23,07,26,14.60
2015,07,23,07,27,14.70
2015,07,23,07,28,14.70
2015,07,23,07,29,14.80
2015,07,23,07,30,14.80
2015,07,23,07,31,14.80
2015,07,23,07,32,14.70
2015,07,23,07,33,14.60
2015,07,23,07,34,14.60
2015,07,23,07,35,14.50
2015,07,23,07,36,14.40
2015,07,23,07,37,14.40
2015,07,23,07,38,14.40
2015,07,23,07,39,14.40
2015,07,23,07,40,14.40
2015,07,23,07,41,14.40
2015,07,23,07,42,14.40
2015,07,23,07,43,14.50
2015,07,23,07,44,14.50
2015,07,23,07,45,14.60
2015,07,23,07,46,14.60
2015,07,23,07,47,14.60
2015,07,23,07,48,14.60
2015,07,23,07,49,14.60
2015,07,23,07,50,14.60
2015,07,23,07,51,14.60
2015,07,23,07,52,14.50
2015,07,23,07,53,14.50
2015,07,23,07,54,14.50
2015,07,23,07,55,14.50
2015,07,23,07,56,14.50
2015,07,23,07,57,14.50
2015,07,23,07,58,14.50
2015,07,23,07,59,14.60
2015,07,23,08,00,14.60
2015,07,23,08,01,14.70
2015,07,23,08,02,14.70
2015,07,23,08,03,14.70
2015,07,23,08,04,14.70
2015,07,23,08,05,14.70
2015,07,23,08,06,14.70
2015,07,23,08,07,14.80
2015,07,23,08,08,14.80
2015,07,23,08,09,14.80
2015,07,23,08,10,14.90
2015,07,23,08,11,14.90
2015,07,23,08,12,14.90
2015,07,23,08,13,14.90
2015,07,23,08,14,14.90
2015,07,23,08,15,15.00
2015,07,23,08,16,15.00
2015,07,23,08,17,15.00
2015,07,23,08,18,15.10
2015,07,23,08,19,15.10
2015,07,23,08,20,15.10
2015,07,23,08,21,15.10
2015,07,23,08,22,15.10
2015,07,23,08,23,15.10
2015,07,23,08,24,15.00
2015,07,23,08,25,15.00
2015,07,23,08,26,14.90
2015,07,23,08,27,14.90
2015,07,23,08,28,15.00
2015,07,23,08,29,15.00
2015,07,23,08,30,15.10
2015,07,23,08,31,15.10
2015,07,23,08,32,15.10
2015,07,23,08,33,15.20
2015,07,23,08,34,15.20
2015,07,23,08,35,15.30
2015,07,23,08,36,15.30
2015,07,23,08,37,15.40
2015,07,23,08,38,15.40
2015,07,23,08,39,15.40
2015,07,23,08,40,15.40
2015,07,23,08,41,15.40
2015,07,23,08,42,15.50
2015,07,23,08,43,15.50
2015,07,23,08,44,15.60
2015,07,23,08,45,15.60
2015,07,23,08,46,15.70
2015,07,23,08,47,15.80
2015,07,23,08,48,15.80
2015,07,23,08,49,15.80
2015,07,23,08,50,15.80
2015,07,23,08,51,15.80
2015,07,23,08,52,15.80
2015,07,23,08,53,15.80
2015,07,23,08,54,15.80
2015,07,23,08,55,15.80
2015,07,23,08,56,15.90
2015,07,23,08,57,15.90
2015,07,23,08,58,15.90
2015,07,23,08,59,16.00
2015,07,23,09,00,16.00
2015,07,23,09,01,16.10
2015,07,23,09,02,16.10
2015,07,23,09,03,16.10
2015,07,23,09,04,16.10
2015,07,23,09,05,16.10
2015,07,23,09,06,16.10
2015,07,23,09,07,16.10
2015,07,23,09,08,16.10
2015,07,23,09,09,16.20
2015,07,23,09,10,16.20
2015,07,23,09,11,16.20
2015,07,23,09,12,16.30
2015,07,23,09,13,16.30
2015,07,23,09,14,16.40
2015,07,23,09,15,16.40
2015,07,23,09,16,16.50
2015,07,23,09,17,16.50
2015,07,23,09,18,16.60
2015,07,23,09,19,16.60
2015,07,23,09,20,16.60
2015,07,23,09,21,16.70
2015,07,23,09,22,16.70
2015,07,23,09,23,16.70
2015,07,23,09,24,16.80
2015,07,23,09,25,16.80
2015,07,23,09,26,16.90
2015,07,23,09,27,16.80
2015,07,23,09,28,16.80
2015,07,23,09,29,16.80
2015,07,23,09,30,16.70
2015,07,23,09,31,16.70
2015,07,23,09,32,16.70
2015,07,23,09,33,16.70
2015,07,23,09,34,16.70
2015,07,23,09,35,16.70
2015,07,23,09,36,16.70
2015,07,23,09,37,16.70
2015,07,23,09,38,16.80
2015,07,23,09,39,16.80
2015,07,23,09,40,16.90
2015,07,23,09,41,17.00
2015,07,23,09,42,17.10
2015,07,23,09,43,17.20
2015,07,23,09,44,17.20
2015,07,23,09,45,17.20
2015,07,23,09,46,17.20
2015,07,23,09,47,17.20
2015,07,23,09,48,17.30
2015,07,23,09,49,17.30
2015,07,23,09,50,17.30
2015,07,23,09,51,17.40
2015,07,23,09,52,17.50
2015,07,23,09,53,17.60
2015,07,23,09,54,17.60
2015,07,23,09,55,17.60
2015,07,23,09,56,17.60
2015,07,23,09,57,17.60
2015,07,23,09,58,17.60
2015,07,23,09,59,17.70
2015,07,23,10,00,17.80
2015,07,23,10,01,17.80
2015,07,23,10,02,17.80
2015,07,23,10,03,17.90
2015,07,23,10,04,18.00
2015,07,23,10,05,18.10
2015,07,23,10,06,18.20
2015,07,23,10,07,18.30
2015,07,23,10,08,18.30
2015,07,23,10,09,18.40
2015,07,23,10,10,18.40
2015,07,23,10,11,18.40
2015,07,23,10,12,18.40
2015,07,23,10,13,18.30
2015,07,23,10,14,18.20
2015,07,23,10,15,18.10
2015,07,23,10,16,18.00
2015,07,23,10,17,17.90
2015,07,23,10,18,17.90
2015,07,23,10,19,17.80
2015,07,23,10,20,17.80
2015,07,23,10,21,17.80
2015,07,23,10,22,17.80
2015,07,23,10,23,17.90
2015,07,23,10,24,17.90
2015,07,23,10,25,17.90
2015,07,23,10,26,17.90
2015,07,23,10,27,17.80
2015,07,23,10,28,17.80
2015,07,23,10,29,17.80
2015,07,23,10,30,17.70
2015,07,23,10,31,17.70
2015,07,23,10,32,17.60
2015,07,23,10,33,17.60
2015,07,23,10,34,17.60
2015,07,23,10,35,17.60
2015,07,23,10,36,17.50
2015,07,23,10,37,17.50
2015,07,23,10,38,17.40
2015,07,23,10,39,17.40
2015,07,23,10,40,17.40
2015,07,23,10,41,17.40
2015,07,23,10,42,17.40
2015,07,23,10,43,17.30
2015,07,23,10,44,17.30
2015,07,23,10,45,17.40
2015,07,23,10,46,17.40
2015,07,23,10,47,17.50
2015,07,23,10,48,17.60
2015,07,23,10,49,17.70
2015,07,23,10,50,17.70
2015,07,23,10,51,17.80
2015,07,23,10,52,17.80
2015,07,23,10,53,17.80
2015,07,23,10,54,17.80
2015,07,23,10,55,17.70
2015,07,23,10,56,17.70
2015,07,23,10,57,17.70
2015,07,23,10,58,17.70
2015,07,23,10,59,17.70
2015,07,23,11,00,17.80
2015,07,23,11,01,17.80
2015,07,23,11,02,17.80
2015,07,23,11,03,17.90
2015,07,23,11,04,17.90
2015,07,23,11,05,17.90
2015,07,23,11,06,17.80
2015,07,23,11,07,17.70
2015,07,23,11,08,17.60
2015,07,23,11,09,17.60
2015,07,23,11,10,17.50
2015,07,23,11,11,17.50
2015,07,23,11,12,17.50
2015,07,23,11,13,17.60
2015,07,23,11,14,17.50
2015,07,23,11,15,17.50
2015,07,23,11,16,17.50
2015,07,23,11,17,17.50
2015,07,23,11,18,17.40
2015,07,23,11,19,17.40
2015,07,23,11,20,17.40
2015,07,23,11,21,17.40
2015,07,23,11,22,17.40
2015,07,23,11,23,17.40
2015,07,23,11,24,17.40
2015,07,23,11,25,17.30
2015,07,23,11,26,17.30
2015,07,23,11,27,17.40
2015,07,23,11,28,17.40
2015,07,23,11,29,17.40
2015,07,23,11,30,17.50
2015,07,23,11,31,17.50
2015,07,23,11,32,17.60
2015,07,23,11,33,17.60
2015,07,23,11,34,17.60
2015,07,23,11,35,17.70
2015,07,23,11,36,17.70
2015,07,23,11,37,17.70
2015,07,23,11,38,17.70
2015,07,23,11,39,17.80
2015,07,23,11,40,17.80
2015,07,23,11,41,17.90
2015,07,23,11,42,17.90
2015,07,23,11,43,18.10
2015,07,23,11,44,18.10
2015,07,23,11,45,18.20
2015,07,23,11,46,18.30
2015,07,23,11,47,18.40
2015,07,23,11,48,18.50
2015,07,23,11,49,18.60
2015,07,23,11,50,18.70
2015,07,23,11,51,18.80
2015,07,23,11,52,19.00
2015,07,23,11,53,19.00
2015,07,23,11,54,19.10
2015,07,23,11,55,19.00
2015,07,23,11,56,18.90
2015,07,23,11,57,18.90
2015,07,23,11,58,18.90
2015,07,23,11,59,18.80
2015,07,23,12,00,18.80
2015,07,23,12,01,18.70
2015,07,23,12,02,18.70
2015,07,23,12,03,18.70
2015,07,23,12,04,18.70
2015,07,23,12,05,18.60
2015,07,23,12,06,18.50
2015,07,23,12,07,18.50
2015,07,23,12,08,18.50
2015,07,23,12,09,18.50
2015,07,23,12,10,18.50
2015,07,23,12,11,18.60
2015,07,23,12,12,18.60
2015,07,23,12,13,18.70
2015,07,23,12,14,18.70
2015,07,23,12,15,18.80
2015,07,23,12,16,18.80
2015,07,23,12,17,18.90
2015,07,23,12,18,19.00
2015,07,23,12,19,19.00
2015,07,23,12,20,19.10
2015,07,23,12,21,19.20
2015,07,23,12,22,19.30
2015,07,23,12,23,19.40
2015,07,23,12,24,19.40
2015,07,23,12,25,19.50
2015,07,23,12,26,19.50
2015,07,23,12,27,19.60
2015,07,23,12,28,19.50
2015,07,23,12,29,19.50
2015,07,23,12,30,19.50
2015,07,23,12,31,19.50
2015,07,23,12,32,19.50
2015,07,23,12,33,19.50
2015,07,23,12,34,19.60
2015,07,23,12,35,19.60
2015,07,23,12,36,19.60
2015,07,23,12,37,19.70
2015,07,23,12,38,19.80
2015,07,23,12,39,19.80
2015,07,23,12,40,19.90
2015,07,23,12,41,19.90
2015,07,23,12,42,19.90
2015,07,23,12,43,19.90
2015,07,23,12,44,20.00
2015,07,23,12,45,20.00
2015,07,23,12,46,20.10
2015,07,23,12,47,20.20
2015,07,23,12,48,20.20
2015,07,23,12,49,20.20
2015,07,23,12,50,20.40
2015,07,23,12,51,20.50
2015,07,23,12,52,20.50
2015,07,23,12,53,20.60
2015,07,23,12,54,20.60
2015,07,23,12,55,20.60
2015,07,23,12,56,20.70
2015,07,23,12,57,20.70
2015,07,23,12,58,20.70
2015,07,23,12,59,20.70
2015,07,23,13,00,20.70
2015,07,23,13,01,20.70
2015,07,23,13,02,20.70
2015,07,23,13,03,20.70
2015,07,23,13,04,20.60
2015,07,23,13,05,20.60
2015,07,23,13,06,20.60
2015,07,23,13,07,20.60
2015,07,23,13,08,20.60
2015,07,23,13,09,20.70
2015,07,23,13,10,20.70
2015,07,23,13,11,20.60
2015,07,23,13,12,20.50
2015,07,23,13,13,20.50
2015,07,23,13,14,20.40
2015,07,23,13,15,20.30
2015,07,23,13,16,20.30
2015,07,23,13,17,20.20
2015,07,23,13,18,20.20
2015,07,23,13,19,20.20
2015,07,23,13,20,20.20
2015,07,23,13,21,20.10
2015,07,23,13,22,20.10
2015,07,23,13,23,20.20
2015,07,23,13,24,20.20
2015,07,23,13,25,20.30
2015,07,23,13,26,20.30
2015,07,23,13,27,20.30
2015,07,23,13,28,20.30
2015,07,23,13,29,20.30
2015,07,23,13,30,20.30
2015,07,23,13,31,20.30
2015,07,23,13,32,20.30
2015,07,23,13,33,20.30
2015,07,23,13,34,20.20
2015,07,23,13,35,20.30
2015,07,23,13,36,20.30
2015,07,23,13,37,20.30
2015,07,23,13,38,20.30
2015,07,23,13,39,20.40
2015,07,23,13,40,20.40
2015,07,23,13,41,20.40
2015,07,23,13,42,20.40
2015,07,23,13,43,20.40
2015,07,23,13,44,20.30
2015,07,23,13,45,20.30
2015,07,23,13,46,20.30
2015,07,23,13,47,20.20
2015,07,23,13,48,20.20
2015,07,23,13,49,20.10
2015,07,23,13,50,20.10
2015,07,23,13,51,20.10
2015,07,23,13,52,20.10
2015,07,23,13,53,20.00
2015,07,23,13,54,19.90
2015,07,23,13,55,19.90
2015,07,23,13,56,19.90
2015,07,23,13,57,20.00
2015,07,23,13,58,20.00
2015,07,23,13,59,20.10
2015,07,23,14,00,20.10
2015,07,23,14,01,20.20
2015,07,23,14,02,20.20
2015,07,23,14,03,20.30
2015,07,23,14,04,20.30
2015,07,23,14,05,20.30
2015,07,23,14,06,20.40
2015,07,23,14,07,20.50
2015,07,23,14,08,20.60
2015,07,23,14,09,20.60
2015,07,23,14,10,20.70
2015,07,23,14,11,20.80
2015,07,23,14,12,20.90
2015,07,23,14,13,21.00
2015,07,23,14,14,21.00
2015,07,23,14,15,20.90
2015,07,23,14,16,20.90
2015,07,23,14,17,20.80
2015,07,23,14,18,20.80
2015,07,23,14,19,20.80
2015,07,23,14,20,20.80
2015,07,23,14,21,20.80
2015,07,23,14,22,20.90
2015,07,23,14,23,21.00
2015,07,23,14,24,21.00
2015,07,23,14,25,21.10
2015,07,23,14,26,21.10
2015,07,23,14,27,21.00
2015,07,23,14,28,21.00
2015,07,23,14,29,20.90
2015,07,23,14,30,20.90
2015,07,23,14,31,20.80
2015,07,23,14,32,20.80
2015,07,23,14,33,20.80
2015,07,23,14,34,20.80
2015,07,23,14,35,20.80
2015,07,23,14,36,20.80
2015,07,23,14,37,20.80
2015,07,23,14,38,20.90
2015,07,23,14,39,21.00
2015,07,23,14,40,21.00
2015,07,23,14,41,21.10
2015,07,23,14,42,21.10
2015,07,23,14,43,21.20
2015,07,23,14,44,21.20
2015,07,23,14,45,21.30
2015,07,23,14,46,21.30
2015,07,23,14,47,21.30
2015,07,23,14,48,21.30
2015,07,23,14,49,21.30
2015,07,23,14,50,21.30
2015,07,23,14,51,21.40
2015,07,23,14,52,21.50
2015,07,23,14,53,21.50
2015,07,23,14,54,21.60
2015,07,23,14,55,21.60
2015,07,23,14,56,21.60
2015,07,23,14,57,21.60
2015,07,23,14,58,21.60
2015,07,23,14,59,21.60
2015,07,23,15,00,21.60
2015,07,23,15,01,21.60
2015,07,23,15,02,21.60
2015,07,23,15,03,21.60
2015,07,23,15,04,21.60
2015,07,23,15,05,21.60
2015,07,23,15,06,21.70
2015,07,23,15,07,21.70
2015,07,23,15,08,21.80
2015,07,23,15,09,21.90
2015,07,23,15,10,21.90
2015,07,23,15,11,22.00
2015,07,23,15,12,22.00
2015,07,23,15,13,22.10
2015,07,23,15,14,22.10
2015,07,23,15,15,22.10
2015,07,23,15,16,22.20
2015,07,23,15,17,22.10
2015,07,23,15,18,22.10
2015,07,23,15,19,22.10
2015,07,23,15,20,22.20
2015,07,23,15,21,22.20
2015,07,23,15,22,22.20
2015,07,23,15,23,22.20
2015,07,23,15,24,22.10
2015,07,23,15,25,22.00
2015,07,23,15,26,22.00
2015,07,23,15,27,21.90
2015,07,23,15,28,22.00
2015,07,23,15,29,22.00
2015,07,23,15,30,21.90
2015,07,23,15,31,21.80
2015,07,23,15,32,21.70
2015,07,23,15,33,21.70
2015,07,23,15,34,21.70
2015,07,23,15,35,21.60
2015,07,23,15,36,21.60
2015,07,23,15,37,21.60
2015,07,23,15,38,21.60
2015,07,23,15,39,21.70
2015,07,23,15,40,21.70
2015,07,23,15,41,21.70
2015,07,23,15,42,21.70
2015,07,23,15,43,21.70
2015,07,23,15,44,21.80
2015,07,23,15,45,21.80
2015,07,23,15,46,21.80
2015,07,23,15,47,21.80
2015,07,23,15,48,21.90
2015,07,23,15,49,21.90
2015,07,23,15,50,21.90
2015,07,23,15,51,21.80
2015,07,23,15,52,21.70
2015,07,23,15,53,21.70
2015,07,23,15,54,21.70
2015,07,23,15,55,21.60
2015,07,23,15,56,21.60
2015,07,23,15,57,21.50
2015,07,23,15,58,21.50
2015,07,23,15,59,21.50
2015,07,23,16,00,21.50
2015,07,23,16,01,21.50
2015,07,23,16,02,21.50
2015,07,23,16,03,21.50
2015,07,23,16,04,21.50
2015,07,23,16,05,21.50
2015,07,23,16,06,21.40
2015,07,23,16,07,21.30
2015,07,23,16,08,21.20
2015,07,23,16,09,21.20
2015,07,23,16,10,21.10
2015,07,23,16,11,21.10
2015,07,23,16,12,21.10
2015,07,23,16,13,21.10
2015,07,23,16,14,21.10
2015,07,23,16,15,21.00
2015,07,23,16,16,21.00
2015,07,23,16,17,21.00
2015,07,23,16,18,21.00
2015,07,23,16,19,21.00
2015,07,23,16,20,20.90
2015,07,23,16,21,20.90
2015,07,23,16,22,20.90
2015,07,23,16,23,20.90
2015,07,23,16,24,20.90
2015,07,23,16,25,20.90
2015,07,23,16,26,20.90
2015,07,23,16,27,21.00
2015,07,23,16,28,21.00
2015,07,23,16,29,21.10
2015,07,23,16,30,21.10
2015,07,23,16,31,21.10
2015,07,23,16,32,21.10
2015,07,23,16,33,21.00
2015,07,23,16,34,20.90
2015,07,23,16,35,20.90
2015,07,23,16,36,20.80
2015,07,23,16,37,20.70
2015,07,23,16,38,20.70
2015,07,23,16,39,20.70
2015,07,23,16,40,20.70
2015,07,23,16,41,20.60
2015,07,23,16,42,20.60
2015,07,23,16,43,20.60
2015,07,23,16,44,20.60
2015,07,23,16,45,20.60
2015,07,23,16,46,20.50
2015,07,23,16,47,20.50
2015,07,23,16,48,20.40
2015,07,23,16,49,20.40
2015,07,23,16,50,20.40
2015,07,23,16,51,20.40
2015,07,23,16,52,20.40
2015,07,23,16,53,20.30
2015,07,23,16,54,20.30
2015,07,23,16,55,20.30
2015,07,23,16,56,20.20
2015,07,23,16,57,20.20
2015,07,23,16,58,20.20
2015,07,23,16,59,20.20
2015,07,23,17,00,20.20
2015,07,23,17,01,20.20
2015,07,23,17,02,20.10
2015,07,23,17,03,20.10
2015,07,23,17,04,20.10
2015,07,23,17,05,20.00
2015,07,23,17,06,20.00
2015,07,23,17,07,19.90
2015,07,23,17,08,19.90
2015,07,23,17,09,19.80
2015,07,23,17,10,19.80
2015,07,23,17,11,19.80
2015,07,23,17,12,19.80
2015,07,23,17,13,19.80
2015,07,23,17,14,19.80
2015,07,23,17,15,19.80
2015,07,23,17,16,19.80
2015,07,23,17,17,19.80
2015,07,23,17,18,19.80
2015,07,23,17,19,19.90
2015,07,23,17,20,19.90